User: anonymous   Login
Location: Prairie State College
(41.5244°N, 87.6382°W)
Time: 00:50:03
(UTC-05:00)
Language:

MSX - Orbit

View from above orbital plane
View from above orbital plane
View from above satellite
View from above satellite

Ground track
Ground track

The orbit data is extracted from the following two-line orbital elements,

1 23851U 96024A   15234.09752342 0.00000100  00000-0  70484-4 0    08
2 23851  98.7188 264.5100 0008394  14.5270 345.4729 13.98022458    09
Epoch (UTC): 22 August 2015 02:20:26
Eccentricity: 0.0008394
inclination: 98.7188°
perigee height: 894 km
apogee height: 907 km
right ascension of ascending node: 264.5100°
argument of perigee: 14.5270°
revolutions per day: 13.98022458
mean anomaly at epoch: 345.4729°
orbit number at epoch: 0

The dashed part of the orbit path shows where the satellite is in the earth's shadow,  

DLR